Preview of NWS' New Version of Forecast
This preview is not operational and should not be used for support decisions.

Regional Weather Roundup (RWR)

Issued by National Weather Service (NWS)

                            
000
ASUS44 KMEG 220400
RWRTN 
TENNESSEE HOURLY STATE WEATHER ROUNDUP
NATIONAL WEATHER SERVICE MEMPHIS TN
1100 PM CDT SAT SEP 21 2019

TNZ002-004-019-021-049-052-054-088>092-220500-
WEST TENNESSEE
  
CITY           SKY/WX    TMP DP  RH WIND       PRES   REMARKS
MEMPHIS INTL   FAIR      77  60  55 S10       30.12S                  
NWS MEMPHIS      N/A     73 N/A N/A MISG        N/A                   
JACKSON        FAIR      69  60  73 S5        30.15S                  
DYERSBURG      FAIR      74  61  63 S5        30.13F                  
$$

TNZ008-025-027-028-033-062-065-066-220500-
NORTH MIDDLE TENNESSEE
  
CITY           SKY/WX    TMP DP  RH WIND       PRES   REMARKS
NASHVILLE      FAIR      71  56  58 S5        30.18R                  
CLARKSVILLE    FAIR      66  59  78 CALM      30.15S                  
SMYRNA         FAIR      65  58  78 S3        30.20R                  
CROSSVILLE     FAIR      65  55  70 CALM      30.27S                  
$$

TNZ061-075-076-078-094-096-097-220500-
SOUTH MIDDLE TENNESSEE
  
CITY           SKY/WX    TMP DP  RH WIND       PRES   REMARKS
$$

TNZ017-018-042-046-047-220500-
NORTHEAST TENNESSEE
  
CITY           SKY/WX    TMP DP  RH WIND       PRES   REMARKS
TRI CITIES     FAIR      65  60  84 CALM      30.26S                  
$$

TNZ012-013-036-069-073-074-220500-
CENTRAL EAST TENNESSEE
  
CITY           SKY/WX    TMP DP  RH WIND       PRES   REMARKS
KNOXVILLE      MOCLDY    72  60  66 CALM      30.22S                  
OAK RIDGE      FAIR      69  61  75 CALM      30.24R                  
$$

TNZ083-085-099-220500-
SOUTHEAST TENNESSEE
  
CITY           SKY/WX    TMP DP  RH WIND       PRES   REMARKS
CHATTANOOGA    FAIR      72  59  63 CALM      30.22S                  
$$

SKY/WX REPORTED AS FAIR MEANS FEW OR NO CLOUDS BELOW
12 THOUSAND FEET.